Location: Caltech
(34.1382°N, 118.1253°W)
Time: 11:14:37
(UTC-07:00)

Iridium 21 - Visible Passes

Search period start: 30 August 2014 00:00
Search period end: 09 September 2014 00:00
Orbit: 776 x 779 km, 86.4° (Epoch: 30 August)

Date Brightness Start Highest point End Pass type
(mag) Time Alt. Az. Time Alt. Az. Time Alt. Az.
30 Aug 5.9 21:52:32 59° N 21:52:32 59° N 21:56:45 10° N visible
31 Aug 5.9 21:18:46 47° ENE 21:18:46 47° ENE 21:23:05 10° NNE visible
31 Aug 8.1 22:59:13 15° WNW 22:59:13 15° WNW 23:01:56 10° NW visible
01 Sep 6.5 20:44:58 26° E 20:44:58 26° E 20:48:58 10° NNE visible
01 Sep 7.2 22:25:24 28° W 22:25:24 28° W 22:29:44 10° NNW visible
02 Sep 7.2 20:11:07 13° E 20:11:30 13° E 20:13:54 10° NE visible
02 Sep 6.0 21:51:33 55° W 21:51:37 55° W 21:56:44 10° N visible
03 Sep 5.4 21:17:39 70° SE 21:18:06 76° E 21:23:18 10° N visible
04 Sep 6.0 20:43:40 35° ESE 20:44:41 38° E 20:49:29 10° NNE visible
04 Sep 7.8 22:24:06 18° W 22:25:30 19° W 22:29:11 10° NW visible
05 Sep 6.8 20:09:36 17° ESE 20:11:24 20° E 20:15:06 10° NE visible
05 Sep 6.8 21:50:02 29° WSW 21:51:46 37° W 21:56:35 10° NNW visible
06 Sep 5.6 21:15:50 33° SSW 21:18:11 73° W 21:23:23 10° N visible
07 Sep 5.5 20:41:29 22° SSE 20:44:42 58° E 20:49:48 10° N visible
07 Sep 8.3 22:23:29 10° WSW 22:25:46 13° WNW 22:28:03 10° NW visible
08 Sep 6.3 20:06:53 10° SE 20:11:20 30° E 20:15:47 10° NNE visible
08 Sep 7.5 21:47:45 10° SW 21:51:58 25° W 21:56:13 10° NNW visible
